Theta_e
331 324 327 323 312 316 312 314 318 316 318 324 325 327 326 330 326 324 347 346 346 351 356 359 363 365 365 365 365 364 363 361 361 361 360 361 361 361 360 360 358 355 350 347 346 345 346 348 349
324 323 325 319 311 311 313 316 316 316 320 324 327 328 327 327 336 340 343 345 350 354 357 354 362 363 364 365 364 364 363 362 362 361 361 361 361 361 359 358 356 351 348 346 345 343 343 343 343
321 321 317 314 313 311 311 317 317 318 322 321 322 327 326 326 337 340 346 346 352 355 356 357 362 362 363 364 363 363 363 363 362 362 361 361 361 360 359 357 356 351 347 346 345 343 343 341 341
319 320 317 308 310 315 316 319 317 319 319 322 324 322 327 329 334 344 345 346 352 353 355 359 361 361 362 361 362 362 362 362 362 361 360 360 360 358 357 356 354 353 350 347 345 345 343 342 342
319 317 309 308 310 312 318 317 317 318 319 319 321 320 325 335 346 348 345 346 349 352 355 360 360 361 361 360 360 361 361 360 360 360 360 359 358 356 356 355 353 352 351 348 346 345 346 345 343
312 315 305 305 308 310 315 317 317 318 321 319 319 321 324 343 348 348 348 347 348 351 355 359 360 360 360 360 360 360 359 359 359 359 359 358 357 355 355 354 352 352 351 349 346 345 344 344 344
309 309 305 307 306 306 311 316 316 318 320 319 322 317 324 333 349 351 350 350 349 352 354 358 356 358 359 359 359 358 358 358 358 357 357 357 356 355 355 354 352 351 350 348 346 345 344 343 341
311 311 306 306 304 304 312 314 316 315 318 320 323 318 320 333 348 352 352 349 348 351 352 355 355 353 352 353 359 358 357 357 357 356 356 356 354 353 353 354 354 351 349 348 347 346 344 344 345
313 305 304 305 305 306 311 311 315 316 315 316 319 320 323 328 346 347 348 347 346 347 351 352 351 351 350 349 353 357 356 356 357 356 356 354 347 350 351 350 354 352 351 349 348 348 348 347 347
307 302 305 311 311 309 311 311 311 311 313 314 316 318 321 329 337 340 343 342 342 344 348 350 351 351 350 346 353 353 350 350 350 349 352 348 347 350 347 351 352 352 352 351 351 350 349 347 341
307 303 306 307 310 312 311 309 313 310 309 314 314 317 318 318 329 334 337 341 342 344 347 349 354 356 353 349 350 351 350 350 350 351 352 351 348 351 349 347 350 350 351 347 350 348 347 345 349
303 307 307 308 308 308 306 309 307 309 311 315 315 316 317 317 319 329 334 339 341 343 347 350 355 357 358 351 351 351 349 350 350 352 356 353 352 351 349 346 347 350 348 348 348 345 349 352 354
305 306 307 308 308 308 308 306 306 307 311 313 314 314 315 316 319 323 335 340 342 342 346 349 354 357 360 362 353 353 353 351 353 353 356 354 351 351 350 349 349 348 347 346 345 346 352 354 354
306 307 306 307 307 308 305 306 307 308 311 311 312 313 315 316 318 320 325 336 341 345 346 350 352 359 359 360 362 356 356 354 354 354 355 357 355 354 350 351 349 347 347 345 344 344 347 348 352
304 301 304 305 306 305 307 303 304 309 311 310 311 313 314 316 318 321 322 326 338 346 349 349 352 356 360 359 358 359 356 355 354 355 359 358 358 359 357 352 351 349 349 350 347 346 345 346 349
301 302 298 304 305 305 304 299 306 309 309 309 310 311 312 315 317 320 324 327 332 342 350 353 350 353 357 360 359 357 355 355 354 354 355 358 359 359 359 352 351 350 349 345 343 342 341 344 347
300 296 298 300 305 304 303 300 305 308 308 308 310 310 311 313 316 319 322 324 331 339 348 352 355 353 355 358 356 357 361 355 354 355 355 358 358 358 354 347 347 356 348 346 344 344 349 350 351
296 296 297 297 302 302 301 301 304 308 307 308 309 310 311 312 314 318 322 323 326 332 341 348 352 357 356 355 355 353 352 352 351 351 351 353 354 354 352 350 356 355 350 348 348 353 352 352 352
297 296 296 299 302 301 301 302 304 307 308 307 308 310 311 312 315 317 320 323 325 330 335 343 347 355 355 352 351 350 347 349 348 348 351 350 351 350 355 351 355 355 353 356 358 355 354 348 351
297 296 297 300 302 300 301 300 304 306 307 308 308 309 310 312 314 316 318 320 323 328 332 336 342 350 355 353 353 351 350 349 349 347 349 349 349 354 354 355 352 355 351 356 354 353 346 346 347
298 297 297 296 300 302 300 298 301 305 306 307 309 310 311 311 312 314 315 318 322 324 328 332 338 342 350 355 354 352 352 352 349 347 346 348 349 348 349 351 351 354 352 347 349 349 349 337 338
295 300 299 298 297 293 300 291 299 302 303 306 307 309 310 311 312 314 315 317 320 322 325 329 334 339 343 351 353 357 348 346 348 350 348 349 350 348 347 350 351 352 348 348 346 345 342 340 333
297 300 299 298 297 296 296 293 298 303 300 303 306 308 311 312 313 313 315 317 319 321 323 326 332 335 339 347 352 351 352 347 349 347 355 356 355 351 349 350 350 349 347 350 348 345 343 339 334
301 299 299 300 297 291 296 295 295 299 301 304 307 308 310 310 312 315 317 318 319 321 322 325 329 333 336 338 343 348 353 352 345 349 348 349 350 351 352 350 350 351 348 346 346 346 345 342 339
300 297 291 290 291 289 299 295 298 303 305 305 306 307 310 312 313 314 316 317 320 322 324 325 326 328 333 335 337 340 347 354 354 352 346 348 344 344 352 351 351 348 349 348 348 347 346 346 341
300 299 292 286 288 292 296 291 298 303 306 307 307 309 310 311 313 314 315 317 317 320 323 325 326 327 328 330 334 337 340 342 347 348 345 343 341 342 349 348 349 349 349 349 348 345 345 347 345
298 295 301 294 295 291 294 298 303 305 305 305 306 308 309 310 312 313 315 316 318 319 321 323 325 327 328 329 331 334 337 341 343 345 344 340 345 338 341 343 343 342 342 343 345 342 343 344 344
299 302 294 295 286 285 291 293 295 299 302 305 305 306 308 310 310 312 314 316 317 319 321 322 323 326 328 328 330 331 335 337 338 338 337 337 336 333 333 335 337 338 338 340 342 339 341 342 341
297 296 297 297 294 288 287 292 302 302 303 303 306 307 308 308 309 311 313 314 316 317 318 320 321 322 325 327 329 330 331 331 331 331 331 332 336 332 330 331 332 332 334 336 337 337 334 336 336
299 296 296 290 290 294 291 292 305 305 305 304 305 305 307 308 309 311 313 313 314 316 317 318 322 320 320 322 325 325 327 327 328 328 329 332 332 331 331 328 327 329 329 331 331 330 328 327 327
Wind_Speed
16 11 7 7 9 8 13 6 3 4 6 3 1 6 3 10 5 5 5 9 18 19 20 19 13 13 12 12 14 16 16 17 16 16 16 16 14 13 11 10 10 10 10 10 9 9 9 10 10
12 12 8 5 10 11 10 5 8 5 3 3 5 4 3 6 5 7 13 9 18 18 17 20 14 13 14 13 14 15 16 16 16 16 16 15 14 13 12 11 11 11 10 10 9 9 9 9 9
12 8 9 7 12 14 6 10 7 7 5 3 3 2 2 4 6 6 12 15 19 18 18 17 15 13 12 13 13 14 15 15 15 15 15 14 13 12 11 11 10 11 10 10 10 10 9 9 8
5 6 5 11 14 16 6 9 1 5 7 2 2 6 6 6 1 4 16 18 19 18 18 18 14 15 13 13 13 12 12 13 14 14 14 13 12 11 10 9 9 8 10 10 10 9 8 8 7
7 4 10 14 16 3 8 2 3 7 2 5 5 5 4 6 5 10 14 16 18 18 16 18 14 15 16 15 13 12 11 11 11 11 12 11 10 10 9 9 8 8 8 9 9 9 8 7 7
8 6 10 14 13 8 7 5 6 6 5 4 6 6 7 9 10 12 12 15 17 17 16 18 16 15 14 16 13 11 10 10 11 11 11 10 10 10 9 9 8 7 7 7 8 8 7 6 6
14 10 14 16 10 10 9 4 9 6 8 6 7 6 7 10 11 11 11 12 15 16 16 17 17 16 15 14 15 13 11 9 7 6 8 9 9 8 9 8 8 7 7 7 7 7 6 6 5
9 9 19 10 12 10 4 8 2 3 5 7 2 4 9 10 10 11 11 13 15 16 16 16 16 17 15 14 12 13 13 12 11 9 7 6 6 5 6 5 7 7 7 7 7 7 6 6 6
7 12 15 18 14 7 5 8 2 2 5 3 2 4 9 3 9 11 12 13 14 14 15 16 17 16 15 15 13 11 12 11 11 12 10 9 9 11 11 9 9 9 8 8 7 7 6 7 9
12 13 19 13 9 9 7 5 1 5 7 6 6 3 5 2 7 10 12 14 16 18 18 16 15 15 15 12 14 13 12 11 12 12 13 10 10 8 7 5 7 7 7 7 8 8 8 9 9
13 14 13 5 13 11 10 7 9 11 12 10 7 7 5 3 7 12 12 13 17 16 15 18 16 16 16 13 11 9 8 9 9 13 11 11 8 7 7 5 7 7 10 7 10 9 9 8 6
10 15 9 12 11 12 12 12 8 11 14 11 12 12 12 10 9 11 13 12 12 16 16 16 18 16 17 12 12 12 10 10 9 11 13 9 7 7 6 5 5 4 4 4 5 5 5 7 7
15 10 12 13 11 12 11 12 13 12 10 13 10 9 10 10 11 10 11 11 9 13 16 18 18 17 15 13 12 12 12 11 12 11 13 10 9 7 7 5 5 4 4 4 5 5 5 7 8
8 12 10 11 12 13 14 14 12 8 9 11 9 10 9 9 11 11 10 12 12 13 15 17 19 17 17 15 13 11 10 12 11 10 10 10 8 7 7 7 6 5 5 4 4 4 5 6 7
7 10 12 13 13 11 10 16 15 13 10 10 9 8 7 7 8 10 11 11 13 13 13 17 17 17 17 17 15 12 11 12 12 11 11 13 12 9 8 7 6 6 6 6 6 6 6 7 6
12 10 13 8 10 12 10 13 10 6 8 12 7 8 7 8 8 9 8 8 11 12 13 14 13 16 18 15 13 12 12 11 11 10 12 17 17 15 13 10 9 8 7 7 6 6 5 6 5
10 11 12 9 10 6 13 10 5 7 6 7 8 7 6 6 6 6 9 9 8 12 12 13 15 16 17 17 14 13 13 12 12 13 13 16 15 18 15 11 10 10 10 9 8 6 6 5 4
11 13 10 11 7 10 13 12 10 11 10 10 8 8 8 7 6 5 9 9 10 9 11 12 12 15 15 12 13 11 12 13 14 14 14 16 13 15 12 9 10 13 10 10 9 9 6 5 2
5 7 8 7 5 9 13 13 11 11 10 12 12 10 9 10 8 4 4 8 10 9 10 12 13 14 12 12 13 13 14 13 14 14 15 15 15 15 13 11 10 9 7 9 12 11 10 6 3
10 11 12 9 9 7 13 15 13 11 12 14 11 11 12 11 10 9 7 7 8 9 9 12 14 13 13 11 11 11 11 12 13 13 13 16 16 15 14 13 10 11 11 8 10 10 7 6 7
13 12 8 10 6 10 14 17 17 14 15 12 13 14 10 10 9 9 8 7 8 9 10 9 11 14 14 15 10 10 10 10 11 12 13 16 19 18 16 14 12 11 10 9 10 10 9 8 6
13 11 11 12 11 10 2 11 12 8 11 13 14 12 11 10 8 8 9 11 12 11 10 11 10 11 14 16 14 15 14 14 14 13 13 13 18 17 17 16 15 13 12 12 10 9 9 8 8
13 2 10 11 13 15 16 12 12 13 9 15 13 13 11 10 9 9 11 9 9 10 11 11 12 11 13 14 17 14 17 13 13 11 13 13 12 16 16 16 15 12 11 11 12 11 11 10 6
4 8 14 13 13 16 18 18 11 10 11 11 10 8 7 6 8 10 12 13 12 11 10 11 11 14 13 13 17 19 18 17 16 14 13 12 12 12 16 16 13 13 12 12 11 11 12 11 9
13 12 10 13 14 13 14 14 10 11 8 10 9 7 7 7 8 8 9 10 9 10 10 9 11 13 13 14 16 18 20 19 18 14 13 13 12 12 13 14 13 12 13 11 11 11 12 11 11
17 17 13 16 13 13 6 8 6 1 6 9 3 3 4 7 8 9 9 8 11 11 12 12 11 12 13 14 16 16 18 15 14 15 13 13 11 11 11 12 13 13 13 11 11 10 11 12 12
12 11 16 21 21 19 19 22 17 13 9 8 5 4 7 9 9 11 10 9 8 10 10 12 12 12 13 14 14 14 15 17 13 15 14 11 10 9 11 12 12 13 12 12 12 11 11 11 11
13 14 10 11 15 22 15 16 10 7 9 10 7 3 8 11 14 13 13 11 11 9 9 10 9 11 11 12 11 11 12 14 11 14 15 12 10 11 11 12 11 11 11 10 11 10 10 11 10
10 14 18 16 15 14 14 10 8 3 3 5 9 11 13 13 15 14 13 13 13 13 12 8 8 7 6 7 7 9 10 11 10 11 12 12 10 12 11 12 12 12 11 11 10 12 10 11 11
11 15 16 10 11 13 11 10 12 1 0 1 10 12 16 17 16 14 13 11 11 11 10 9 7 6 6 6 3 5 6 6 7 7 8 10 11 10 11 13 11 12 12 12 13 13 11 11 10
Wind_Direction
290 311 283 243 235 236 228 180 331 208 186 68 165 270 335 4 340 24 117 141 141 149 150 162 149 147 150 148 149 150 151 150 150 152 151 145 143 146 146 141 142 144 138 131 128 130 131 134 137
306 309 236 255 251 210 195 138 180 65 68 125 145 184 212 83 39 93 138 145 154 146 155 163 153 151 150 152 153 151 151 151 151 153 152 146 146 148 151 151 154 149 143 138 141 144 147 150 147
278 283 271 233 229 243 207 183 131 101 129 175 155 349 21 52 65 127 111 152 152 154 160 152 150 145 151 152 152 150 149 150 152 154 151 147 146 153 155 156 156 152 151 153 153 155 155 155 153
262 211 225 247 221 236 281 154 283 158 127 135 101 119 129 56 52 52 138 153 152 159 161 134 150 144 150 153 147 145 146 152 154 156 150 148 150 152 153 153 152 158 161 162 160 159 159 157 156
223 249 245 232 234 209 228 124 264 260 149 144 189 121 91 80 106 136 149 160 164 160 162 154 155 150 152 152 150 147 151 153 152 151 148 149 151 153 153 153 161 167 167 166 166 169 167 166 172
215 263 230 225 214 212 231 228 263 235 204 130 147 151 86 116 124 144 153 167 167 161 159 154 157 155 156 153 153 153 154 156 154 153 152 154 157 159 160 162 170 171 170 174 180 180 180 179 188
241 217 235 246 238 191 217 255 244 272 196 91 345 182 108 135 118 140 159 167 167 164 168 161 170 164 159 159 157 157 154 152 151 154 157 156 161 163 166 170 178 178 179 184 192 196 198 203 208
242 241 236 233 218 222 154 224 185 304 171 352 265 190 146 102 137 141 157 166 171 173 176 172 174 174 177 173 167 164 163 160 156 156 157 151 154 180 190 179 189 195 194 198 203 215 217 226 235
241 231 228 217 225 210 197 220 184 292 267 302 345 360 24 101 159 159 159 169 178 182 179 183 180 177 181 175 172 173 174 172 163 164 172 168 199 185 183 207 152 196 201 212 222 227 230 241 239
218 226 230 236 221 239 181 244 242 272 236 249 238 161 75 116 201 194 183 178 186 185 185 186 187 182 188 180 171 196 188 192 195 193 185 207 204 199 219 174 176 217 219 223 235 241 248 241 256
212 243 224 257 251 248 251 243 263 269 257 255 270 300 284 268 225 245 212 198 194 188 191 192 186 185 195 193 184 188 194 198 197 201 196 206 198 194 201 210 195 216 199 234 197 218 229 247 280
224 229 243 231 232 248 252 264 249 258 265 300 278 285 293 279 257 228 238 214 201 196 200 195 188 191 198 195 191 191 198 196 199 200 197 203 206 196 221 211 212 203 226 240 249 267 275 280 265
229 215 222 238 246 249 262 252 257 251 259 265 269 267 272 270 265 250 236 224 223 211 200 203 195 199 198 213 196 201 199 199 200 195 194 207 205 201 197 211 241 251 234 234 250 257 282 290 277
199 240 237 234 236 240 251 251 237 231 226 249 252 259 257 275 269 259 231 232 230 218 216 209 204 200 203 206 214 207 201 199 209 200 195 196 206 192 199 194 215 224 246 252 259 270 297 290 297
209 232 220 230 228 234 244 249 234 243 246 253 248 253 261 266 285 271 264 250 233 225 221 213 209 205 207 207 208 210 204 212 204 200 191 196 208 193 210 205 207 219 216 230 245 243 245 249 258
216 231 238 200 211 219 222 258 230 181 240 241 246 252 250 257 273 288 287 270 264 243 213 218 210 208 208 210 206 214 211 208 208 203 194 200 197 198 197 197 207 196 217 219 222 246 248 263 268
200 248 208 189 199 211 215 250 109 190 225 240 242 244 256 257 261 276 288 282 253 241 236 216 212 217 210 214 215 215 209 211 211 206 206 210 208 194 187 202 196 183 199 207 208 210 228 223 252
230 219 235 252 160 220 229 241 238 244 217 231 244 259 261 260 263 294 298 300 292 263 238 235 227 217 217 214 215 217 216 213 217 214 210 203 212 212 210 201 196 183 191 189 194 196 198 240 240
292 267 258 253 245 252 253 253 253 254 224 238 241 250 261 266 271 245 279 315 313 289 263 242 230 224 214 210 211 211 213 213 219 217 214 213 213 208 211 227 207 206 199 217 173 187 171 192 189
225 240 246 261 256 269 261 261 254 255 246 245 261 264 259 261 255 254 261 287 289 299 284 262 247 234 219 220 225 228 221 220 222 218 214 218 216 213 222 221 208 206 208 186 185 181 194 178 174
224 243 247 260 275 260 265 266 253 240 242 253 253 258 261 251 255 270 285 296 281 281 290 284 263 240 230 230 221 228 244 237 225 218 212 212 214 214 215 223 226 195 226 197 195 194 191 210 191
247 202 252 260 265 269 47 282 273 252 239 245 248 247 245 261 262 252 255 280 282 285 286 289 281 260 237 225 225 217 219 225 220 224 217 210 213 220 224 223 219 219 220 224 216 203 210 226 231
255 304 261 268 266 271 256 248 264 242 230 245 249 248 260 265 263 302 297 297 293 296 285 283 284 270 250 239 233 226 224 228 233 228 224 212 199 214 217 219 225 232 234 226 229 214 209 205 212
193 235 246 250 254 253 250 250 262 255 216 233 241 253 253 298 299 297 303 301 291 291 293 294 277 280 271 247 236 235 237 228 237 215 217 213 214 207 222 224 225 227 226 226 212 213 213 225 215
222 250 253 244 226 245 248 252 272 289 261 271 292 334 333 313 298 324 324 325 321 313 320 311 294 279 272 264 248 240 239 237 234 224 219 211 205 209 201 213 218 222 223 226 223 222 236 229 234
243 233 254 272 274 279 145 235 247 60 313 301 329 303 333 343 348 330 321 326 323 324 322 322 313 296 286 268 257 249 244 238 230 222 223 224 214 207 209 204 214 220 223 215 221 227 231 230 233
250 226 256 280 268 268 271 273 259 225 238 231 266 303 348 344 331 323 323 324 333 332 328 322 320 313 297 281 266 255 243 235 218 229 218 214 215 197 195 203 207 212 215 213 212 227 215 229 221
256 289 259 222 258 258 250 245 260 184 243 185 233 325 325 328 325 328 322 322 315 304 304 344 320 318 316 295 275 252 238 231 215 209 207 198 191 204 188 201 208 217 215 220 217 224 213 222 223
235 243 236 265 272 271 271 272 44 300 323 330 317 329 319 319 314 315 319 320 320 311 312 325 343 328 331 321 298 266 235 215 210 206 197 186 184 184 189 200 201 209 208 211 213 240 229 211 224
246 265 269 246 255 260 275 263 308 248 153 267 313 315 312 311 301 302 308 318 325 331 329 336 326 344 26 14 300 265 266 255 235 220 212 195 194 193 200 190 204 206 207 209 215 218 221 219 210